CZ-3A DEB, 35557

Orbit data source: Space-Track

CZ-3A DEB, 35557 is space debris in HEO originally from a launch on Fri, 02 Feb 2007 UTC launched from the Xichang Space Center, China (XSC). Debris objects in space refer to the collection of defunct objects orbiting the Earth. Examples of debris include non-operational satellites, rocket bodies, and fragments generated from explosions, collisions, or faulty payload assembly.

Loading next visibility...
Identifier
35557, 2007-003R
Orbit
HEO
Country
Flag of CNCN / PRC
Related business
Manufacturer
Unknown
Mission
Spacecraft
Bus & Motor
Unknown
Mass
Unknown
Launch date (UTC)
2007-02-02 (19 years ago)
Launch vehicle
Unknown
Launch site
Xichang Space Center, China (XSC)
Object type
Payload
Rocket body
Debris
Shape & HBR
Unknown shape, 0.3 m
Radar Cross Section
Medium (>0.1 m² and <1 m²)

Expand to show TLE details & history
Last TLE update: 4 days ago

TLE from 4 days ago
0 CZ-3A DEB
1 35557U 07003R   25337.74695300  .00022961  00000-0  26675-1 0  9996
2 35557  23.0012 206.8806 6428224 109.3685 327.1545  3.33111789 15936
Epoch: 2025-12-03T17:55Z
TLE epoch observation values (Epoch: 2025-12-03T17:55:36.739Z)
Latitude
0.00001°
Longitude
-134.74802°
Altitude
7,729.715 km
Speed
5.955 km/s
True Right ascension
13h 47m 52s
True Declination
0° 00' 00"
Sunlit
Object was in daylight at epoch
Visualization orbit readout
Latitude
Unknown
Longitude
Unknown
Altitude
Unknown
Speed
Unknown
Apparent Right ascension
Unknown
Apparent Declination
Unknown
Sunlit
N/A
Visualization observer readout
Local Sidereal Time
17:57:47
Azimuth
Unknown
Elevation
Unknown
Doppler factor
Unknown
Orbital elements
Apogee altitude
24,740.76 km
Perigee altitude
387.642 km
Semi-major axis
18,942.338 km
Eccentricity
0.64282
Inclination
23.0012°
RAAN
206.8806°
Arg. of periapsis
109.3685°
True anomaly
250.67226°
Mean anomaly
327.1545°
Eccentric anomaly
293.33647°
Mean motion
0.83252 °/min
Orbital period
432.42 mins
BSTAR
0.026675
Loading maneuver chart data...
Computing Atmospheric mass density...
Loading historical data...
Loading historical data...
Loading historical data...
Loading historical data...
Loading historical data...
Loading historical data...
Loading historical data...

Documentation

Showing up to 5 results
|